Terminal Aerodrome Forecast
Issued by NWS

Current Version | Previous Version | Graphics & Text | Print | Product List | Glossary On
Versions: 1 2 3 4 5 6 7 8 9 10 11 12 13 14 15
000
FTUS41 KPBZ 010300 AAA
TAFHLG
TAF AMD
KHLG 010300Z 0103/0124 34010KT 3SM -RA OVC050
      TEMPO 0103/0107 1SM -RA BKN005
     FM011300 01006KT P6SM BKN035
     FM011600 01006KT P6SM SCT050=

USA.gov is the U.S. government's official web portal to all federal, state and local government web resources and services.